Theta_e
303 303 302 302 302 302 302 302 302 303 305 307 308 309 309 309 310 309 311 315 314 315 315 316 317 325 327 328 329 328 330 330 330 330 330 330 331 330 330 330 330 330 330 330 329
301 302 302 302 302 302 302 302 302 302 302 303 304 306 308 309 309 310 313 313 313 312 315 321 320 322 327 329 329 330 331 330 330 330 330 330 330 330 330 330 329 329 330 330 331
300 301 301 301 301 301 302 302 302 302 302 302 301 301 303 305 308 311 313 314 314 317 314 318 319 322 325 326 329 330 332 331 331 330 329 329 329 329 329 331 329 329 329 329 330
299 300 300 300 300 300 300 301 301 301 302 302 302 302 302 302 313 312 311 311 311 314 315 316 319 319 323 326 328 331 330 330 330 330 330 331 330 330 330 330 329 328 328 328 328
298 298 299 299 299 300 300 300 300 300 300 301 301 301 302 310 309 309 311 314 314 315 315 316 318 320 326 325 325 330 330 330 330 330 330 330 330 330 330 328 328 327 326 326 326
297 297 298 298 298 299 299 300 300 300 300 300 301 301 307 309 308 309 309 311 314 314 319 317 317 320 325 326 326 326 327 328 329 330 330 330 330 329 329 327 326 325 324 324 324
297 298 299 299 299 299 299 299 300 300 300 300 300 305 308 307 305 307 308 308 311 310 314 316 316 319 323 325 324 324 327 327 328 328 329 329 330 329 326 324 324 323 324 324 322
298 299 300 300 300 300 300 300 300 300 300 300 301 307 307 303 304 303 306 307 310 310 310 311 314 316 318 320 321 324 326 327 327 327 326 326 328 327 325 325 324 324 324 323 322
299 299 300 301 301 301 301 300 300 300 301 303 307 309 307 306 305 305 307 308 310 311 311 310 311 314 318 320 323 324 326 327 327 326 325 324 326 327 324 324 324 324 325 323 323
302 301 301 302 302 301 301 301 301 304 307 308 308 307 306 304 308 310 309 311 310 311 312 311 312 316 319 322 327 326 326 326 328 327 323 324 325 326 324 324 325 325 325 324 324
302 302 302 302 302 302 302 305 307 308 307 307 306 307 305 305 306 306 309 312 312 311 315 313 314 317 320 321 323 325 327 328 327 326 326 326 326 326 325 326 327 326 325 324 326
300 301 302 302 302 301 303 304 305 305 306 305 305 304 304 304 306 306 306 310 313 314 315 316 315 318 318 320 321 323 325 327 327 326 327 325 326 328 328 328 327 325 325 326 327
301 300 300 301 302 304 304 305 304 305 307 305 305 306 307 307 307 306 306 308 313 315 315 317 317 316 317 319 320 321 323 325 325 325 325 324 325 327 328 327 326 325 324 323 327
302 301 300 300 304 304 305 304 304 305 308 306 309 309 309 309 311 309 309 307 311 314 315 315 317 317 316 317 320 321 321 320 321 322 324 324 329 328 328 328 328 326 324 325 329
302 302 300 300 303 304 304 304 305 305 305 307 311 309 309 310 310 312 311 309 310 313 315 315 316 317 318 317 318 319 319 320 320 322 323 323 325 328 328 328 328 327 325 327 330
302 300 300 304 303 303 304 304 305 309 305 306 308 309 309 309 310 309 310 311 309 310 315 315 315 316 318 317 317 318 319 320 321 322 325 324 326 328 329 329 329 328 324 329 331
300 300 302 303 304 303 304 305 308 306 305 306 308 308 308 308 309 310 310 313 312 310 313 316 316 315 316 317 317 318 320 323 325 327 327 326 328 329 328 327 326 326 327 331 331
300 302 304 304 305 303 304 307 305 303 304 306 306 306 306 308 307 307 308 313 314 311 313 316 318 316 315 317 318 319 322 322 325 329 329 327 328 329 326 326 325 324 324 330 331
301 304 305 304 302 303 305 306 305 305 305 305 305 305 305 306 306 307 308 308 313 312 314 317 318 317 316 316 318 319 323 322 327 328 326 330 328 325 325 326 325 327 324 329 331
302 304 304 303 302 305 307 305 305 305 305 306 306 305 306 306 305 307 307 310 309 312 314 316 319 319 316 317 318 320 321 324 324 328 328 326 326 326 326 327 326 328 329 330 332
304 305 304 303 303 304 307 306 306 305 305 306 306 305 305 306 306 307 307 309 308 309 311 315 317 320 318 317 318 319 322 322 324 324 327 328 325 324 327 326 328 331 331 333 332
303 307 302 304 306 305 306 304 304 306 306 307 307 306 307 306 307 307 308 309 308 308 312 314 318 322 319 318 319 319 320 322 323 324 324 325 323 326 328 330 330 331 331 332 331
304 304 303 305 307 305 303 304 304 306 305 307 307 306 307 307 307 306 307 308 308 309 311 311 317 321 321 320 318 319 320 322 323 325 325 324 321 322 328 329 331 333 332 331 331
304 308 305 304 303 302 302 305 305 304 305 305 307 307 308 308 307 307 307 307 308 309 308 310 315 319 322 320 319 319 319 321 322 323 323 322 321 323 328 329 331 332 331 331 331
303 305 303 306 305 302 303 303 305 305 305 305 307 307 307 308 308 307 307 308 308 310 310 313 315 317 318 318 318 321 319 319 321 321 322 321 321 321 326 327 329 329 331 331 332
303 302 302 302 302 303 303 305 305 305 304 306 306 306 306 307 307 309 308 309 310 307 312 313 317 316 318 317 318 319 320 319 319 320 321 320 321 321 322 322 322 329 331 331 332
301 301 302 302 303 303 305 304 304 303 304 305 306 307 308 308 307 306 306 307 308 310 311 313 315 317 318 317 319 320 320 320 319 320 320 321 321 321 322 323 323 326 329 330 332
Wind_Speed
12 13 12 12 14 16 19 20 21 23 24 25 26 29 27 27 28 26 24 24 14 15 12 10 14 13 17 17 15 14 11 13 19 14 12 6 9 3 3 11 12 13 15 11 10
14 15 15 15 14 13 15 16 17 18 21 23 25 26 27 26 27 32 30 27 23 22 19 18 16 17 22 20 16 16 15 21 20 14 14 9 10 9 11 13 19 20 15 13 13
14 15 16 17 17 17 16 15 17 19 19 18 20 22 21 19 19 18 27 28 27 29 29 22 18 20 25 24 26 24 23 19 24 22 15 17 21 19 19 15 23 21 19 22 23
14 15 15 15 17 18 18 18 17 16 18 18 17 17 16 8 9 6 19 19 25 32 31 26 25 27 24 26 29 28 30 30 28 30 23 20 26 24 22 23 30 29 23 28 30
17 17 17 18 18 18 18 19 21 21 18 17 18 17 13 11 21 13 11 12 6 11 27 33 31 31 28 27 32 31 27 29 32 33 26 26 28 32 32 29 31 30 27 27 29
18 16 17 18 19 20 19 18 20 20 20 20 19 18 10 19 13 24 29 21 14 7 14 29 22 30 28 34 31 31 35 34 33 32 28 24 30 33 32 31 32 30 29 28 29
18 17 19 20 21 21 21 21 20 20 20 21 21 13 17 28 20 17 17 28 22 13 14 15 28 11 22 21 29 31 26 25 25 30 27 28 27 28 28 32 30 27 26 29 31
17 18 19 20 20 20 21 22 22 21 18 17 18 10 14 16 20 22 21 30 22 24 18 14 16 24 22 17 16 21 25 24 24 23 28 20 31 23 25 27 25 24 27 31 33
19 19 19 19 19 21 22 21 19 17 15 12 8 10 15 11 10 15 14 21 18 18 18 16 16 22 18 19 18 24 24 30 25 23 20 19 30 21 21 22 19 25 29 30 30
22 22 21 22 23 24 23 19 15 9 4 2 5 7 13 10 4 5 8 9 13 16 17 22 17 14 19 20 29 23 26 27 27 21 16 26 29 20 23 27 26 27 29 32 31
24 23 22 22 23 24 22 14 6 7 6 14 11 18 23 21 13 15 7 4 11 21 23 29 20 27 41 34 27 26 29 26 23 18 22 24 25 23 21 25 29 30 30 32 28
24 24 24 25 24 24 11 9 5 7 14 21 30 31 33 29 18 23 13 11 14 22 25 19 30 47 31 28 29 29 30 29 25 22 24 21 27 26 23 24 29 29 26 27 22
25 25 24 24 24 10 12 7 3 10 9 20 16 17 14 13 19 28 22 25 19 20 28 34 43 26 32 30 30 32 31 27 30 21 22 22 27 29 25 31 24 22 28 31 22
26 26 24 24 11 10 9 4 5 8 6 5 3 4 3 5 6 17 14 28 21 24 25 33 35 28 32 34 34 33 27 26 25 22 24 22 25 25 21 19 21 27 27 21 15
27 27 26 19 14 7 6 4 6 3 6 5 6 1 2 7 9 8 9 20 28 23 17 32 28 36 30 41 28 33 20 23 22 21 25 29 20 22 21 22 24 18 25 17 8
29 29 24 8 6 7 8 6 2 5 9 1 2 4 7 6 4 8 14 13 20 27 23 29 15 23 40 22 28 21 17 19 19 17 21 24 23 22 20 27 25 18 21 13 9
31 23 10 6 5 6 2 4 5 8 6 1 7 11 12 9 6 10 11 11 13 22 26 22 30 18 21 28 24 25 21 10 12 14 19 19 17 18 16 13 13 10 11 11 10
28 9 11 6 7 3 1 5 7 2 4 14 12 18 18 8 5 6 9 13 15 24 19 20 21 31 20 31 24 31 26 13 17 15 16 18 12 16 13 21 29 27 15 9 12
19 5 10 11 6 4 3 5 8 9 7 10 15 16 16 6 6 6 2 4 8 15 21 19 25 28 22 24 32 26 27 25 13 12 8 14 17 15 19 21 15 14 19 14 14
11 1 12 10 3 2 3 5 4 6 11 13 15 10 14 8 10 5 1 4 11 17 13 6 10 20 31 24 27 25 24 21 16 19 16 12 12 10 7 11 13 14 15 18 16
8 3 10 9 3 3 3 7 10 11 13 7 13 14 14 13 13 11 2 10 3 13 12 13 9 15 23 26 27 21 21 21 17 13 16 11 8 9 13 9 11 13 17 18 20
8 2 7 6 2 0 5 9 12 11 11 9 9 9 10 12 12 8 6 3 8 6 6 7 6 11 27 22 25 28 22 27 13 21 12 10 5 2 6 1 10 11 13 18 22
9 4 5 7 3 4 7 10 8 13 11 7 10 7 10 11 6 5 5 11 7 0 2 4 9 9 11 23 22 28 24 26 17 15 21 12 2 6 4 5 6 7 15 22 26
7 4 4 3 1 4 8 6 8 8 8 11 10 11 11 10 9 7 7 2 4 9 7 5 5 14 8 19 11 23 25 24 24 12 12 15 12 7 7 9 8 8 15 22 25
6 2 4 4 5 10 9 6 11 9 7 13 4 8 11 7 15 11 5 8 2 6 8 4 7 19 19 9 7 13 24 25 25 22 16 12 15 15 8 9 8 4 15 20 24
6 5 6 16 8 11 2 8 11 12 7 9 11 16 14 13 14 16 16 11 4 6 5 4 1 11 20 15 11 8 10 23 24 22 20 15 17 14 18 19 10 3 13 21 23
4 5 6 9 6 7 6 8 12 17 12 9 14 15 15 10 15 21 22 20 11 7 4 4 4 5 19 19 10 11 15 15 19 22 19 19 20 15 15 8 10 7 8 20 25
Wind_Direction
345 336 328 320 313 307 303 297 292 288 285 281 279 279 277 276 277 278 270 263 266 241 239 229 223 215 208 214 214 218 235 246 248 255 257 191 234 190 252 277 288 269 274 286 294
344 342 341 338 332 327 323 317 309 296 284 278 280 277 278 281 280 273 263 265 251 242 240 214 216 213 217 225 210 211 229 234 248 261 267 285 263 283 271 268 276 276 260 271 294
334 333 332 333 331 327 324 322 322 319 314 301 290 282 277 285 295 268 259 259 253 245 234 224 220 214 227 227 217 223 238 240 247 249 261 284 277 280 275 270 274 294 297 284 286
330 328 325 323 321 322 323 322 316 314 315 319 317 308 297 270 250 217 235 245 240 235 225 215 214 218 229 234 229 239 240 244 255 254 251 266 281 282 269 276 280 290 289 290 292
332 331 328 324 320 318 317 318 316 317 320 310 308 313 313 247 238 265 210 220 249 248 214 205 213 222 226 235 239 244 248 255 251 265 264 262 268 269 274 280 277 285 290 284 283
335 332 328 325 322 319 315 313 308 313 312 307 302 300 286 253 251 242 238 231 241 232 216 211 221 227 242 238 242 249 250 250 257 253 258 258 265 270 271 275 280 283 286 285 286
339 337 332 330 325 321 317 311 307 306 304 302 297 281 264 252 265 269 249 240 238 231 222 214 213 213 230 252 253 256 257 257 247 253 255 261 262 260 266 270 274 283 286 288 288
341 336 333 330 328 323 319 316 315 309 304 294 285 252 259 284 272 266 252 250 249 240 233 220 218 235 241 256 266 241 239 247 233 227 240 242 261 263 269 269 278 278 289 294 289
342 336 332 330 329 326 325 320 313 305 299 282 248 218 276 274 278 268 257 246 243 240 229 227 227 228 223 234 246 225 234 230 242 232 243 222 259 256 263 270 272 286 293 294 288
339 337 334 333 333 332 331 328 318 311 305 231 234 230 248 249 283 259 295 241 230 212 213 217 213 214 222 216 226 222 228 247 257 230 214 245 250 254 258 269 277 286 291 289 285
343 335 330 329 331 335 339 348 304 249 258 255 269 244 276 282 275 269 254 238 215 215 204 198 203 214 218 218 234 247 245 240 242 243 252 260 260 260 263 273 279 289 288 289 282
346 340 331 323 323 331 350 343 319 313 297 275 263 262 261 267 275 266 250 223 202 217 208 189 215 222 218 222 225 236 245 247 253 242 250 249 267 268 262 271 279 276 281 280 288
346 341 333 327 328 336 330 305 285 327 268 292 267 260 263 245 252 256 237 228 231 228 213 214 220 216 219 221 224 228 235 241 251 261 248 259 266 268 264 259 271 264 267 278 273
342 340 335 327 344 312 322 279 297 320 283 258 197 206 210 220 236 243 240 222 222 234 228 228 232 217 222 225 219 231 223 244 256 254 251 246 269 265 274 273 262 268 271 258 257
339 337 328 322 297 308 288 287 291 271 282 94 134 107 249 243 321 79 208 227 236 220 220 222 225 227 219 224 218 237 230 238 240 248 258 249 259 266 261 265 261 261 265 242 235
341 333 327 341 293 287 277 275 241 233 245 280 131 307 285 228 316 333 312 221 238 241 239 237 215 224 230 217 220 224 221 230 236 242 242 246 252 258 264 261 265 257 250 197 183
343 340 10 353 319 307 270 224 229 249 35 44 330 323 307 292 314 307 328 259 218 210 229 228 238 235 230 209 202 201 190 196 218 222 241 242 247 251 267 240 258 250 241 167 163
348 20 0 350 307 331 203 202 248 349 296 337 318 304 284 339 305 299 281 327 214 229 221 223 223 223 209 215 190 195 192 203 214 226 240 223 247 232 242 252 249 250 241 168 166
359 33 15 5 7 120 235 237 355 2 338 316 305 276 272 224 286 281 315 298 303 251 241 222 233 192 221 213 199 195 211 210 253 229 279 210 230 274 257 254 245 233 214 188 170
3 20 4 356 4 335 291 321 317 326 308 302 293 287 294 312 304 315 198 111 325 336 332 291 269 222 196 206 205 197 196 202 222 233 226 246 230 237 197 229 229 223 201 181 167
1 308 355 20 341 354 317 335 329 322 321 309 305 299 281 285 293 309 300 140 88 319 311 280 258 235 184 204 192 199 198 213 211 227 213 229 230 215 243 239 215 194 174 168 167
355 336 337 341 353 126 322 331 311 312 341 295 285 286 294 295 288 282 290 45 175 304 310 321 278 273 198 202 216 200 208 197 201 199 255 217 217 6 286 29 220 199 161 167 165
341 303 332 6 348 344 321 304 290 311 338 328 298 308 302 294 293 283 285 138 197 165 325 14 235 233 220 198 206 200 207 195 212 198 208 222 208 235 135 133 138 142 154 157 156
338 326 338 360 358 335 329 295 324 320 321 305 288 303 329 308 275 271 281 74 162 256 208 234 264 245 194 190 191 208 208 195 209 217 188 212 207 221 161 112 108 129 158 159 161
357 1 338 312 326 324 297 284 301 359 315 310 274 297 350 307 313 282 278 311 355 286 213 247 262 233 251 289 296 280 210 211 207 218 226 199 220 226 214 112 66 112 165 168 168
353 336 316 291 291 298 313 293 324 339 317 302 308 325 313 294 294 298 312 307 341 320 314 230 260 268 246 231 246 249 247 215 214 214 224 241 227 243 268 289 294 179 189 183 177
310 314 287 294 303 319 311 312 313 317 292 279 321 310 297 308 320 295 282 276 262 267 288 277 292 225 236 215 222 246 216 219 220 216 216 221 237 248 246 268 242 243 207 202 188